Location: Central Falls
(41.8900°N, 71.3929°W)
Time: 15:19:08
(UTC+00:00)

Vanguard 1 Rocket - Pass Details

Date: 09 December 2023
Orbit: 654 x 4218 km, 34.3° (Epoch: 24 February)

Event Time Altitude Azimuth Distance (km) Brightness Sun altitude
Rises 06:42:43 0° 214° (SW) 8,240 - -57.7°
Reaches altitude 10° 06:48:57 10° 207° (SSW) 7,371 - -56.7°
Exits shadow 07:05:38 36° 173° (S) 5,295 11.0 -53.8°
Maximum altitude 07:11:33 40° 148° (SSE) 4,857 10.9 -52.8°
Drops below altitude 10° 07:28:13 10° 87° (E) 5,604 11.9 -49.8°
Sets 07:32:03 0° 80° (E) 6,199 12.3 -49.1°
